When you browse on this site, cookies collect data to enhance your experience and personalize the content and advertising you see.
Visit our Privacy Policy to learn more. By continuing to use the site, you agree to this use of cookies and data.
  • In Latvia
  • List of Countries
  • For 7 days
  • Water Temperature
  • Satellite Maps
  • Weather Map
  • Weather Widgets
  • user-avatar
    Login

    Hourly Weather Wiktoria

    Today, 20 February, Wednesday

    Time Temperature Precipitation Wind Pressure Humidity
    00:00 +14°C° 0 mm 4 mps 748 mmHg 63%
    01:00 +13°C° 0 mm 4 mps 748 mmHg 66%
    02:00 +13°C° 0 mm 4 mps 748 mmHg 68%
    03:00 +12°C° 0 mm 4 mps 748 mmHg 71%
    04:00 +12°C° 0 mm 4 mps 748 mmHg 72%
    05:00 +12°C° 0 mm 4 mps 748 mmHg 72%
    06:00 +13°C° 0 mm 4 mps 748 mmHg 71%
    07:00 +13°C° 0 mm 4 mps 749 mmHg 71%
    08:00 +15°C° 0 mm 4 mps 749 mmHg 61%
    09:00 +19°C° 0 mm 4 mps 749 mmHg 51%
    10:00 +20°C° 0 mm 4 mps 749 mmHg 43%
    11:00 +22°C° 0 mm 4 mps 749 mmHg 38%
    12:00 +25°C° 0 mm 4 mps 748 mmHg 34%
    13:00 +26°C° 0 mm 4 mps 748 mmHg 29%
    14:00 +27°C° 0 mm 4 mps 747 mmHg 29%
    15:00 +28°C° 0 mm 4 mps 747 mmHg 28%
    16:00 +29°C° 0 mm 5 mps 747 mmHg 28%
    17:00 +27°C° 0 mm 5 mps 747 mmHg 33%
    18:00 +26°C° 0 mm 5 mps 747 mmHg 38%
    19:00 +23°C° 0 mm 5 mps 748 mmHg 42%
    20:00 +22°C° 0 mm 5 mps 748 mmHg 48%
    21:00 +20°C° 0 mm 6 mps 749 mmHg 53%
    22:00 +19°C° 0 mm 6 mps 749 mmHg 58%
    23:00 +17°C° 0 mm 5 mps 749 mmHg 61%

    Tomorrow, 21 February, Thursday

    Time Temperature Precipitation Wind Pressure Humidity
    00:00 +16°C° 0 mm 5 mps 750 mmHg 65%
    01:00 +16°C° 0 mm 5 mps 750 mmHg 68%
    02:00 +15°C° 0 mm 5 mps 750 mmHg 72%
    03:00 +15°C° 0 mm 5 mps 750 mmHg 75%
    04:00 +14°C° 0 mm 5 mps 750 mmHg 79%
    05:00 +14°C° 0 mm 5 mps 751 mmHg 78%
    06:00 +14°C° 0 mm 5 mps 751 mmHg 77%
    07:00 +14°C° 0 mm 5 mps 751 mmHg 76%
    08:00 +17°C° 0 mm 5 mps 752 mmHg 66%
    09:00 +20°C° 0 mm 5 mps 752 mmHg 55%
    10:00 +22°C° 0 mm 5 mps 752 mmHg 45%
    11:00 +25°C° 0 mm 5 mps 752 mmHg 40%
    12:00 +27°C° 0 mm 5 mps 751 mmHg 35%
    13:00 +28°C° 0 mm 6 mps 751 mmHg 30%
    14:00 +28°C° 0 mm 6 mps 751 mmHg 30%
    15:00 +29°C° 0 mm 7 mps 750 mmHg 29%
    16:00 +29°C° 0 mm 7 mps 750 mmHg 29%
    17:00 +27°C° 0 mm 7 mps 751 mmHg 32%
    18:00 +24°C° 0 mm 7 mps 751 mmHg 36%
    19:00 +23°C° 0 mm 8 mps 751 mmHg 39%
    20:00 +21°C° 0 mm 7 mps 752 mmHg 43%
    21:00 +20°C° 0 mm 7 mps 753 mmHg 48%
    22:00 +18°C° 0 mm 7 mps 753 mmHg 52%
    23:00 +17°C° 0 mm 6 mps 753 mmHg 56%

    Day after tomorrow, 22 February, Friday

    Time Temperature Precipitation Wind Pressure Humidity
    00:00 +16°C° 0 mm 5 mps 754 mmHg 59%
    01:00 +15°C° 0 mm 4 mps 754 mmHg 63%
    02:00 +14°C° 0 mm 4 mps 754 mmHg 66%
    03:00 +14°C° 0 mm 4 mps 754 mmHg 69%
    04:00 +13°C° 0 mm 3 mps 754 mmHg 72%
    05:00 +14°C° 0 mm 3 mps 754 mmHg 70%
    06:00 +14°C° 0 mm 3 mps 754 mmHg 68%
    07:00 +14°C° 0 mm 3 mps 755 mmHg 66%
    08:00 +18°C° 0 mm 2 mps 755 mmHg 59%
    09:00 +21°C° 0 mm 2 mps 755 mmHg 52%
    10:00 +25°C° 0 mm 1 mps 755 mmHg 45%
    11:00 +26°C° 0 mm 2 mps 755 mmHg 41%
    12:00 +28°C° 0 mm 2 mps 754 mmHg 37%
    13:00 +29°C° 0 mm 3 mps 754 mmHg 33%
    14:00 +30°C° 0 mm 3 mps 753 mmHg 29%
    15:00 +32°C° 0 mm 4 mps 753 mmHg 26%
    16:00 +33°C° 0 mm 5 mps 753 mmHg 22%
    17:00 +30°C° 0 mm 6 mps 753 mmHg 27%
    18:00 +28°C° 0 mm 6 mps 753 mmHg 33%
    19:00 +26°C° 0 mm 7 mps 753 mmHg 38%
    20:00 +23°C° 0 mm 7 mps 754 mmHg 44%
    21:00 +22°C° 0 mm 7 mps 755 mmHg 50%
    22:00 +20°C° 0 mm 7 mps 755 mmHg 56%
    23:00 +19°C° 0 mm 6 mps 755 mmHg 60%

    23 February, Saturday

    Time Temperature Precipitation Wind Pressure Humidity
    00:00 +17°C° 0 mm 5 mps 755 mmHg 65%
    01:00 +17°C° 0 mm 4 mps 755 mmHg 69%
    02:00 +17°C° 0 mm 4 mps 755 mmHg 70%
    03:00 +15°C° 0 mm 4 mps 755 mmHg 71%
    04:00 +16°C° 0 mm 3 mps 755 mmHg 72%
    05:00 +16°C° 0 mm 3 mps 756 mmHg 71%
    06:00 +16°C° 0 mm 3 mps 756 mmHg 70%
    07:00 +16°C° 0 mm 3 mps 757 mmHg 69%
    08:00 +19°C° 0 mm 3 mps 757 mmHg 61%
    09:00 +21°C° 0 mm 2 mps 757 mmHg 53%
    10:00 +25°C° 0 mm 2 mps 757 mmHg 45%
    11:00 +27°C° 0 mm 2 mps 756 mmHg 39%
    12:00 +28°C° 0 mm 3 mps 756 mmHg 32%
    13:00 +30°C° 0 mm 3 mps 755 mmHg 26%
    14:00 +31°C° 0 mm 3 mps 755 mmHg 23%
    15:00 +33°C° 0 mm 3 mps 754 mmHg 20%
    16:00 +34°C° 0 mm 3 mps 754 mmHg 17%
    17:00 +33°C° 0 mm 4 mps 754 mmHg 20%
    18:00 +30°C° 0 mm 4 mps 754 mmHg 23%
    19:00 +29°C° 0 mm 4 mps 754 mmHg 26%
    20:00 +27°C° 0 mm 4 mps 755 mmHg 31%
    21:00 +25°C° 0 mm 4 mps 755 mmHg 36%
    22:00 +22°C° 0 mm 4 mps 756 mmHg 41%
    23:00 +21°C° 0 mm 4 mps 756 mmHg 45%

    24 February, Sunday

    Time Temperature Precipitation Wind Pressure Humidity
    00:00 +20°C° 0 mm 3 mps 756 mmHg 50%
    01:00 +19°C° 0 mm 3 mps 756 mmHg 55%
    02:00 +18°C° 0 mm 3 mps 756 mmHg 57%
    03:00 +18°C° 0 mm 3 mps 756 mmHg 60%
    04:00 +17°C° 0 mm 3 mps 756 mmHg 63%
    05:00 +17°C° 0 mm 3 mps 757 mmHg 63%
    06:00 +17°C° 0 mm 3 mps 757 mmHg 63%
    07:00 +17°C° 0 mm 3 mps 758 mmHg 64%
    08:00 +20°C° 0 mm 2 mps 758 mmHg 56%
    09:00 +23°C° 0 mm 2 mps 758 mmHg 48%
    10:00 +25°C° 0 mm 2 mps 758 mmHg 40%
    11:00 +27°C° 0 mm 1 mps 757 mmHg 34%
    12:00 +30°C° 0 mm 1 mps 757 mmHg 28%
    13:00 +30°C° 0 mm 0 mps 756 mmHg 22%
    14:00 +32°C° 0 mm 1 mps 755 mmHg 21%
    15:00 +32°C° 0 mm 1 mps 755 mmHg 19%
    16:00 +33°C° 0 mm 1 mps 754 mmHg 18%
    17:00 +31°C° 0 mm 1 mps 755 mmHg 20%
    18:00 +30°C° 0 mm 1 mps 755 mmHg 23%
    19:00 +29°C° 0 mm 1 mps 755 mmHg 26%
    20:00 +27°C° 0 mm 1 mps 755 mmHg 27%
    21:00 +26°C° 0 mm 1 mps 756 mmHg 29%
    22:00 +25°C° 0 mm 1 mps 756 mmHg 30%
    23:00 +24°C° 0 mm 2 mps 756 mmHg 32%

    25 February, Monday

    Time Temperature Precipitation Wind Pressure Humidity
    00:00 +22°C° 0 mm 3 mps 756 mmHg 34%
    01:00 +22°C° 0 mm 4 mps 756 mmHg 36%
    02:00 +21°C° 0 mm 3 mps 756 mmHg 41%
    03:00 +20°C° 0 mm 3 mps 756 mmHg 46%
    04:00 +19°C° 0 mm 3 mps 757 mmHg 51%
    05:00 +18°C° 0 mm 3 mps 757 mmHg 52%
    06:00 +18°C° 0 mm 3 mps 758 mmHg 53%
    07:00 +18°C° 0 mm 3 mps 758 mmHg 54%
    08:00 +20°C° 0 mm 3 mps 758 mmHg 49%
    09:00 +22°C° 0 mm 3 mps 758 mmHg 43%
    10:00 +25°C° 0 mm 4 mps 758 mmHg 37%
    11:00 +27°C° 0 mm 3 mps 757 mmHg 33%
    12:00 +28°C° 0 mm 2 mps 756 mmHg 29%
    13:00 +30°C° 0 mm 2 mps 756 mmHg 25%
    14:00 +31°C° 0 mm 2 mps 755 mmHg 24%
    15:00 +32°C° 0 mm 2 mps 754 mmHg 23%
    16:00 +32°C° 0 mm 1 mps 754 mmHg 22%
    17:00 +31°C° 0 mm 1 mps 754 mmHg 24%
    18:00 +30°C° 0 mm 1 mps 754 mmHg 26%
    19:00 +28°C° 0 mm 1 mps 754 mmHg 28%
    20:00 +27°C° 0 mm 1 mps 754 mmHg 30%
    21:00 +26°C° 0 mm 1 mps 754 mmHg 31%
    22:00 +25°C° 0 mm 1 mps 754 mmHg 32%
    23:00 +25°C° 0 mm 1 mps 754 mmHg 35%
    Show more